DECAYED
Showing default

FLOCK 4Y 32, 55021 (Decayed)

Orbit data source: Space-Track

FLOCK 4Y 32, 55021 was a payload satellite owned by Planet (US) in LEO that was launched on Tue, 03 Jan 2023 UTC via an FALCON 9 launch vehicle from the Air Force Eastern Test Range (AFETR). Payload-class satellites include a variety of spacecraft equipped with specific instruments for various scientific and technological missions. These include communications satellites like Starlink; space stations such as the ISS; scientific satellites like the Hubble; Earth observation satellites from companies like Planet Labs, Umbra, and HawkEye 360; GPS; miniature CubeSats for education and research; and military/defense satellites.

Not visible in the next 10 days
Identifier
55021, 2023-001N
Orbit
Decayed
Country
Flag of USUS
Related business
Manufacturer
Planet
Mission
Decayed Commercial Imaging
Bus & Motor
CUBESAT 3U, Unknown motor
Mass
5.7 kg wet, 5.7 kg dry
Launch date (UTC)
2023-01-03 (3 years ago)
Launch vehicle
FALCON 9
Launch site
Air Force Eastern Test Range (AFETR)
Object type
Payload
Rocket body
Debris
Shape & HBR
Box + 2 Pan, 1.0 m
Radar Cross Section
0.108 m², Medium (>0.1 m² and < 1m²)

Expand to show TLE details & history
Last TLE update: 4 months ago

TLE from 4 months ago
0 FLOCK 4Y 32
1 55021U 23001N   25187.91585588  .08954373  24801-5  13470-2 0  9997
2 55021  97.3428 264.5944 0016319 267.3962  92.5466 16.33924778140318
Epoch: 2025-07-06T21:58Z
TLE epoch observation values (Epoch: 2025-07-06T21:58:49.948Z)
Latitude
-0.00002°
Longitude
9.7536°
Altitude
185.752 km
Speed
7.794 km/s
True Right ascension
17h 38m 22s
True Declination
0° 00' 00"
Sunlit
Object was in full shadow at epoch
Visualization orbit readout
Latitude
Unknown
Longitude
Unknown
Altitude
Unknown
Speed
Unknown
Apparent Right ascension
Unknown
Apparent Declination
Unknown
Sunlit
N/A
Visualization observer readout
Local Sidereal Time
10:14:26
Azimuth
Unknown
Elevation
Unknown
Doppler factor
Unknown
Orbital elements
Apogee altitude
189.527 km
Perigee altitude
168.126 km
Semi-major axis
6,556.963 km
Eccentricity
0.00163
Inclination
97.3428°
RAAN
264.5944°
Arg. of periapsis
267.3962°
True anomaly
92.7334°
Mean anomaly
92.5466°
Eccentric anomaly
92.64°
Mean motion
4.08779 °/min
Orbital period
88.07 mins
BSTAR
0.001347
Loading maneuver chart data...
Computing Atmospheric mass density...
Loading historical data...
Loading historical data...
Loading historical data...
Loading historical data...
Loading historical data...
Loading historical data...
Loading historical data...

Documentation

Showing up to 5 results
|